Temperature
28 25 25 25 26 26 26 26 26 27 28 27 25 25 24 25 24 24 24 23 23 23 23 23 22 22 21 21 21 20 20 20 20 19 19 19 19 19 19 19 18 18 18 18
25 25 27 27 28 27 27 26 26 27 28 27 25 25 25 25 24 24 24 24 23 23 23 22 22 22 22 21 21 21 20 20 20 20 19 19 19 19 19 19 19 18 18 18
25 26 28 29 28 28 27 26 27 27 28 27 25 24 24 25 25 25 25 24 24 24 23 23 22 22 22 22 21 21 21 20 20 20 19 19 19 19 19 19 19 19 18 18
26 27 29 28 28 28 27 28 28 28 26 24 25 23 23 24 24 24 25 24 24 24 24 23 23 22 22 22 22 21 21 21 20 20 19 19 19 19 19 19 19 19 19 19
26 28 28 28 28 28 27 28 28 27 25 24 24 23 23 23 23 24 24 25 24 24 24 23 23 23 23 22 22 22 21 21 20 20 20 19 19 19 19 19 19 19 19 19
27 28 28 28 29 29 28 27 26 24 22 23 24 23 23 22 24 24 24 25 24 24 24 24 23 23 23 22 22 22 21 21 21 20 20 20 20 19 19 19 19 19 19 19
26 27 28 29 28 27 27 24 23 23 22 22 23 23 23 24 25 25 25 25 25 24 24 24 23 23 23 22 22 22 22 21 21 21 20 20 20 20 19 19 19 19 19 19
25 25 27 28 28 26 25 24 22 23 22 22 23 24 24 25 26 26 26 25 25 25 24 24 24 23 23 23 23 22 22 22 21 21 21 21 20 20 20 20 19 19 19 19
24 25 27 29 29 27 26 24 23 22 22 22 22 23 24 25 25 25 25 25 25 25 24 24 24 24 23 23 23 23 22 22 22 22 21 21 21 20 20 20 19 19 19 19
24 25 26 28 28 27 26 24 22 21 22 22 23 23 23 24 24 24 24 24 25 25 25 24 24 24 24 24 23 23 23 23 22 22 22 21 21 21 20 20 20 20 19 19
24 23 25 26 27 26 26 25 22 20 21 21 22 22 24 24 24 24 24 25 25 25 25 25 25 24 24 24 23 23 23 23 22 22 22 21 21 21 20 20 20 20 19 19
22 21 22 24 26 27 26 25 22 22 21 20 21 22 25 24 24 24 25 25 26 25 25 25 25 24 24 24 24 23 23 23 22 22 22 21 21 21 21 20 20 19 19 19
22 20 22 23 24 25 26 25 23 21 20 20 21 23 24 23 24 25 26 26 26 26 25 25 25 24 24 24 24 23 23 23 22 22 22 21 21 21 21 20 20 19 19 19
22 20 21 22 23 24 25 26 25 22 21 21 22 23 23 23 23 24 25 26 26 26 25 25 25 24 24 24 24 23 23 23 23 22 22 21 21 21 21 20 20 19 19 19
20 20 22 22 24 25 26 26 26 24 22 22 22 23 23 23 23 24 25 25 25 25 25 25 25 24 24 24 24 24 23 23 23 22 22 22 21 21 21 20 20 19 19 19
18 20 21 22 24 25 25 25 26 25 24 23 23 23 23 24 25 24 25 25 24 24 24 24 24 24 24 24 24 23 23 23 22 22 22 22 21 21 20 20 20 19 19 19
17 18 19 20 22 24 23 24 25 24 24 24 23 23 23 23 23 24 24 24 24 24 24 24 24 24 24 24 24 23 23 22 22 22 22 21 21 21 20 20 20 19 19 19
17 17 16 18 21 22 22 23 25 24 24 23 22 22 23 23 24 25 25 25 24 24 24 24 24 24 24 24 23 23 22 22 22 21 21 21 21 20 20 20 19 19 19 18
17 17 17 17 19 21 22 24 24 23 22 22 22 22 23 23 23 23 24 24 24 24 24 24 24 23 23 23 23 23 22 22 21 21 21 21 20 20 20 19 19 19 18 18
17 16 16 17 19 20 21 23 25 23 21 22 22 21 22 22 20 21 23 24 24 24 24 23 23 23 23 23 23 22 22 21 21 21 21 20 20 20 19 19 19 18 18 18
17 17 17 17 18 19 21 23 23 21 20 21 22 21 21 21 21 22 23 23 24 24 24 23 23 23 23 22 22 22 21 21 21 21 20 20 20 19 19 19 19 18 18 17
16 16 16 16 17 18 21 22 20 19 21 22 21 22 22 22 22 23 23 23 23 23 23 23 23 23 22 22 22 21 21 21 20 20 20 20 19 19 18 18 18 18 17 17
16 16 15 16 17 18 20 20 21 21 21 21 21 21 22 21 22 22 22 22 22 23 23 23 22 22 22 22 21 21 21 20 20 20 19 19 19 18 18 18 17 17 17 16
16 16 15 16 17 18 20 20 20 21 21 21 21 21 21 21 21 21 21 22 22 22 22 22 22 22 21 21 21 20 20 20 19 19 19 18 18 18 18 17 17 17 16 16
15 15 15 15 16 18 19 19 19 20 20 21 21 21 21 21 21 21 21 21 21 21 21 22 22 22 21 21 20 20 19 19 19 18 18 18 18 17 17 17 16 16 16 16
14 14 14 14 16 16 17 19 19 19 19 20 20 20 20 20 20 20 20 20 20 21 21 21 21 21 21 20 20 19 19 19 19 18 18 17 17 17 17 16 16 16 16 16
Wind_Speed
3 3 4 8 7 6 6 5 5 6 7 6 8 10 14 13 11 11 12 13 13 13 12 12 12 12 10 8 8 7 7 6 5 3 3 2 2 1 1 2 3 3 3 4
4 5 10 7 5 3 3 4 4 3 5 6 7 8 12 13 15 15 15 15 15 13 11 12 11 11 11 10 9 8 8 6 6 4 4 3 3 2 2 1 2 3 4 4
7 8 6 4 4 4 4 6 6 5 2 4 6 1 6 9 8 10 12 13 14 17 16 14 13 12 12 11 11 10 8 7 6 5 3 2 2 1 1 1 1 2 4 4
6 7 5 4 5 4 5 5 6 5 4 2 5 3 6 8 7 10 12 12 13 15 15 14 14 13 13 12 11 10 9 8 7 6 5 5 4 3 3 3 2 2 3 4
6 4 4 6 7 5 4 2 4 4 4 2 1 3 5 4 7 11 12 13 14 14 16 16 16 15 14 13 12 10 9 8 7 6 6 6 4 3 2 2 2 2 2 3
7 6 5 6 5 2 3 3 5 5 4 0 4 3 4 6 11 12 11 12 13 13 14 14 13 12 11 11 11 10 10 8 8 7 7 6 6 4 4 3 3 2 2 2
6 7 5 3 1 4 3 5 3 4 4 4 3 2 6 8 10 13 14 12 12 13 13 13 13 12 12 12 11 11 10 9 8 8 7 7 6 6 6 5 4 3 2 2
4 6 6 4 6 5 2 8 8 5 4 4 2 3 6 6 8 9 9 11 12 13 13 14 16 15 15 15 13 12 11 10 9 9 8 6 6 5 4 4 4 4 4 4
6 6 7 5 4 7 3 3 8 7 2 0 3 3 5 1 3 6 7 8 12 14 14 15 15 15 14 15 14 13 13 10 9 9 7 6 6 5 5 4 4 3 3 3
7 4 7 5 1 1 7 7 6 6 5 2 4 3 4 4 4 6 8 9 10 10 11 12 14 14 14 13 13 12 12 12 10 9 8 7 6 6 6 5 4 4 4 3
4 4 6 3 2 5 2 3 5 5 6 6 3 6 7 9 9 9 9 10 11 11 11 11 12 13 13 12 12 12 12 11 10 10 8 7 7 7 6 5 5 4 4 4
1 5 3 7 6 5 6 6 7 6 4 5 5 7 6 8 9 9 9 10 11 12 11 11 11 11 12 12 11 11 11 11 11 10 9 8 7 6 6 6 5 5 4 4
1 5 1 6 7 4 2 2 5 6 5 5 5 6 3 3 5 7 8 9 10 10 9 9 10 10 11 11 11 11 11 11 10 9 9 8 8 8 8 7 6 5 5 4
3 4 6 8 6 3 1 1 2 6 4 4 7 6 4 4 5 5 6 8 9 10 9 10 10 9 9 10 10 10 10 10 10 9 9 9 9 9 8 7 7 6 5 5
5 2 2 4 4 1 1 1 0 3 7 8 8 7 8 8 8 8 8 8 8 8 8 9 10 9 8 8 8 9 9 9 10 10 9 10 9 8 7 7 6 6 6 6
5 3 3 3 2 3 2 0 1 2 4 5 5 5 6 5 5 5 7 8 8 8 7 7 7 8 9 8 7 7 8 8 9 9 10 9 8 7 7 7 6 6 6 5
3 3 3 3 4 4 2 2 3 2 2 5 6 7 4 5 7 7 7 7 8 8 6 6 7 9 9 9 9 8 7 6 7 9 8 7 7 7 7 7 6 6 5 4
3 2 2 0 3 3 7 3 3 4 1 1 3 2 4 6 6 4 5 7 7 6 6 6 7 8 7 7 7 7 6 7 7 8 7 6 6 6 6 6 6 5 4 4
6 5 2 2 1 3 4 3 1 3 1 2 3 3 5 6 7 4 2 4 6 6 6 6 6 7 6 7 8 8 6 7 6 6 6 6 7 6 6 6 6 4 4 4
3 5 4 3 2 4 5 5 1 5 1 3 3 4 4 5 4 2 2 3 5 5 4 4 4 5 6 6 7 8 7 7 7 7 7 6 6 6 7 7 5 4 4 4
2 2 3 3 2 5 6 6 3 3 4 3 2 4 4 3 4 4 2 3 4 5 5 4 4 5 5 6 8 8 7 7 6 5 5 6 6 6 6 5 4 3 3 3
3 3 3 4 3 6 6 3 3 4 2 1 3 3 4 2 2 3 3 3 4 4 4 4 4 4 4 5 7 7 6 6 5 4 5 5 5 5 4 4 3 3 4 4
2 5 5 6 6 5 3 2 2 3 3 1 1 2 3 3 3 3 3 3 4 4 4 4 5 4 3 4 5 5 5 4 5 5 4 4 4 4 4 4 4 3 3 3
3 2 2 1 1 2 3 4 4 4 3 2 1 2 4 3 3 3 1 1 2 3 3 3 5 5 3 3 4 4 4 4 5 5 4 4 5 4 3 3 4 3 4 4
3 2 2 1 2 3 4 4 4 4 4 4 2 2 3 3 3 2 1 1 2 3 3 4 5 5 5 4 4 5 5 6 5 5 4 4 4 4 4 3 3 4 4 5
2 2 3 5 5 2 4 3 1 3 3 3 3 2 2 2 3 2 1 1 1 2 3 3 3 3 4 4 4 4 5 7 7 6 5 5 4 4 4 3 1 1 2 3
Wind_Direction
340 69 231 225 204 194 181 191 214 217 189 160 169 167 179 182 182 179 180 182 180 182 182 176 172 168 161 160 157 158 159 162 151 140 144 144 159 175 168 177 186 172 161 153
5 269 239 225 215 216 192 195 217 226 188 151 166 182 185 183 188 188 186 186 181 179 178 176 173 169 167 168 166 165 170 169 165 162 162 165 166 180 184 189 181 178 163 160
213 243 255 223 220 219 244 195 197 184 133 104 122 168 204 202 197 195 194 188 182 181 182 180 176 175 172 173 174 175 176 173 174 166 146 138 98 63 73 201 212 203 179 172
245 245 240 234 229 196 253 220 179 157 125 184 139 180 246 208 197 202 200 191 188 186 182 181 178 177 178 179 176 173 174 173 176 167 158 161 167 182 206 202 205 209 191 184
249 226 220 232 235 205 221 163 132 143 136 96 61 126 275 179 199 213 204 195 190 189 185 184 182 181 180 179 176 175 172 173 173 168 171 171 176 189 191 182 184 194 203 196
247 252 219 221 246 215 166 60 47 60 83 131 240 159 258 204 205 205 201 196 189 187 187 186 184 177 176 177 177 176 173 178 176 173 173 175 181 182 174 187 192 201 214 225
293 286 266 222 289 330 81 99 38 6 15 249 255 163 236 223 201 194 192 192 187 186 181 183 181 177 177 179 181 180 178 181 182 180 183 184 183 181 186 194 193 190 201 215
217 271 252 214 190 199 200 143 158 185 214 264 335 218 250 225 191 181 178 178 178 183 183 186 186 184 185 184 185 183 184 185 184 186 192 190 183 183 192 195 190 194 201 208
187 246 271 240 204 161 167 170 164 140 151 31 287 280 311 228 154 161 158 168 179 181 185 189 188 186 187 187 186 185 184 186 187 188 187 189 186 181 192 196 191 194 197 202
172 235 276 279 7 300 164 156 107 122 148 229 291 267 226 217 195 178 166 175 182 182 181 186 188 187 188 188 187 184 185 187 187 187 188 189 189 188 193 189 196 197 198 199
157 183 291 334 197 207 150 134 129 130 152 158 212 263 221 194 191 182 183 183 178 179 185 186 186 188 186 184 183 184 187 187 188 190 189 186 187 193 193 198 205 202 200 197
163 139 242 262 259 197 164 165 149 155 196 164 166 254 244 191 186 179 183 182 178 180 184 185 183 182 182 182 182 185 187 189 191 189 185 187 187 188 193 203 205 199 198 199
100 113 102 324 332 358 99 154 143 132 125 148 164 251 283 171 181 183 176 179 178 176 176 177 177 180 182 185 186 186 188 190 189 183 185 188 191 192 198 203 201 197 195 195
102 113 162 195 221 240 291 316 131 119 143 187 205 217 252 197 187 188 176 178 174 171 168 171 175 177 182 185 186 187 188 187 183 182 188 196 201 202 203 200 196 197 196 196
66 99 181 220 227 177 159 201 177 162 174 179 210 204 222 206 192 185 171 163 162 161 164 169 174 173 174 176 181 183 183 183 183 182 190 203 206 201 197 196 197 198 201 207
35 71 32 336 331 49 47 311 189 182 176 175 175 219 225 195 173 167 158 155 163 167 173 168 167 170 172 171 173 176 182 184 180 184 195 199 195 192 194 197 198 200 204 205
12 63 52 298 313 38 317 242 167 147 175 164 193 224 198 147 160 170 161 151 159 166 163 163 164 170 176 177 170 169 176 173 177 184 188 186 185 188 192 192 189 195 198 196
142 73 113 254 40 211 240 244 126 126 99 106 153 176 159 164 162 152 148 146 152 159 163 167 169 170 173 170 164 162 154 158 174 182 181 182 184 189 189 189 196 200 198 200
159 146 119 108 151 279 300 317 103 137 3 19 121 120 120 123 89 43 60 136 154 162 166 163 169 169 165 162 155 144 148 155 161 180 180 182 183 185 187 193 200 197 188 200
87 119 127 126 145 220 259 290 320 103 54 328 101 119 127 98 113 239 241 144 145 143 144 145 149 144 153 168 154 147 156 165 180 190 190 183 179 182 188 193 196 196 192 204
40 72 139 166 199 258 273 298 35 122 221 273 91 101 104 121 182 202 180 130 139 135 131 131 133 146 166 164 151 158 169 186 196 186 179 179 181 184 186 185 185 182 180 179
183 165 180 159 186 244 293 12 111 193 201 112 93 96 93 100 113 122 138 142 144 130 128 131 136 152 164 154 156 169 187 193 177 167 170 179 182 184 176 169 173 171 173 183
186 190 185 184 209 244 292 120 146 124 95 69 95 96 99 88 95 97 141 160 157 146 146 144 151 154 156 159 162 179 199 174 159 158 170 174 170 171 165 167 176 179 185 196
310 7 89 49 283 316 15 48 40 55 69 54 83 100 95 88 96 105 131 145 144 153 155 159 150 153 168 175 176 181 175 157 149 162 174 168 167 168 167 173 184 191 201 207
276 4 30 279 266 16 5 18 34 25 43 61 44 78 107 110 103 109 124 221 188 178 177 170 171 175 183 183 187 184 168 156 157 173 172 170 175 174 175 184 202 207 219 216
247 191 178 233 243 208 262 284 9 21 19 37 39 28 40 111 120 86 26 264 211 195 182 172 179 186 186 177 185 185 173 165 166 176 177 181 183 185 185 187 224 301 258 240
Height
1489 1496 1503 1500 1498 1500 1505 1510 1513 1507 1499 1504 1510 1513 1513 1515 1518 1520 1521 1523 1524 1527 1529 1532 1534 1535 1537 1539 1540 1541 1542 1543 1544 1545 1545 1546 1547 1547 1547 1548 1548 1548 1548 1548
1497 1499 1490 1489 1491 1495 1502 1509 1510 1505 1498 1503 1511 1512 1511 1512 1513 1515 1517 1519 1521 1525 1528 1530 1532 1534 1535 1537 1539 1540 1541 1542 1543 1544 1545 1546 1546 1547 1547 1547 1548 1547 1547 1547
1499 1492 1485 1487 1491 1496 1500 1506 1506 1506 1501 1504 1512 1520 1516 1513 1513 1515 1516 1517 1519 1522 1524 1527 1529 1531 1533 1535 1537 1538 1540 1541 1542 1543 1544 1545 1546 1546 1546 1546 1547 1547 1547 1547
1492 1485 1485 1488 1490 1493 1503 1492 1495 1500 1512 1522 1517 1537 1521 1513 1513 1513 1514 1516 1517 1519 1522 1524 1526 1529 1531 1533 1535 1536 1538 1540 1541 1542 1543 1543 1544 1544 1545 1545 1546 1546 1546 1546
1491 1484 1485 1489 1486 1486 1493 1487 1492 1499 1511 1521 1520 1532 1527 1514 1517 1512 1511 1512 1514 1516 1518 1521 1523 1525 1528 1531 1533 1535 1536 1538 1540 1541 1542 1542 1543 1543 1544 1545 1545 1545 1545 1545
1484 1480 1480 1481 1479 1481 1485 1492 1498 1506 1519 1535 1524 1530 1530 1516 1509 1506 1507 1509 1510 1513 1516 1519 1522 1524 1527 1530 1532 1533 1535 1536 1538 1539 1540 1541 1541 1542 1543 1543 1543 1544 1544 1544
1489 1481 1477 1476 1483 1483 1488 1509 1531 1536 1544 1539 1520 1525 1523 1502 1498 1499 1502 1505 1507 1509 1513 1517 1520 1522 1525 1527 1529 1531 1533 1534 1536 1537 1538 1539 1540 1541 1542 1542 1542 1542 1543 1543
1500 1499 1479 1474 1480 1488 1491 1504 1531 1546 1547 1537 1522 1524 1510 1494 1493 1495 1497 1501 1504 1508 1510 1513 1516 1519 1521 1524 1526 1528 1530 1531 1533 1535 1536 1538 1539 1540 1540 1541 1541 1541 1541 1541
1497 1496 1474 1469 1470 1477 1491 1500 1502 1523 1530 1538 1531 1518 1504 1493 1493 1495 1497 1500 1502 1503 1506 1509 1513 1516 1518 1521 1523 1525 1527 1529 1531 1533 1534 1536 1537 1538 1539 1539 1540 1539 1540 1540
1483 1492 1478 1470 1470 1473 1479 1488 1506 1523 1539 1545 1533 1523 1517 1501 1498 1496 1496 1498 1499 1501 1503 1506 1510 1513 1515 1518 1520 1523 1524 1526 1528 1530 1532 1533 1535 1536 1537 1538 1538 1538 1538 1538
1477 1491 1485 1477 1479 1483 1483 1490 1501 1517 1523 1539 1543 1529 1496 1494 1492 1493 1493 1495 1496 1499 1501 1504 1506 1510 1513 1515 1518 1520 1522 1524 1526 1528 1530 1531 1533 1534 1535 1535 1536 1536 1536 1536
1477 1489 1495 1484 1471 1468 1474 1483 1496 1514 1522 1525 1531 1522 1485 1486 1487 1488 1489 1491 1494 1496 1498 1501 1504 1507 1510 1513 1515 1518 1520 1522 1524 1526 1528 1529 1530 1531 1532 1533 1533 1534 1534 1535
1477 1490 1504 1499 1489 1476 1477 1479 1485 1497 1512 1523 1528 1516 1485 1485 1486 1486 1487 1489 1491 1494 1496 1499 1503 1505 1507 1510 1512 1515 1517 1519 1522 1524 1525 1527 1528 1529 1529 1530 1531 1532 1532 1532
1472 1488 1498 1504 1498 1485 1482 1480 1481 1494 1511 1516 1511 1504 1491 1487 1486 1485 1485 1487 1489 1491 1494 1497 1500 1502 1504 1507 1510 1512 1514 1517 1519 1521 1523 1524 1525 1526 1527 1528 1528 1529 1529 1529
1475 1488 1486 1484 1478 1475 1477 1478 1479 1486 1493 1502 1499 1496 1488 1484 1483 1483 1483 1486 1488 1491 1493 1495 1497 1499 1502 1505 1507 1510 1512 1514 1516 1518 1520 1521 1522 1523 1524 1525 1526 1526 1526 1527
1481 1488 1486 1485 1476 1474 1478 1477 1477 1480 1483 1486 1488 1488 1478 1478 1479 1481 1482 1484 1487 1489 1491 1493 1495 1498 1500 1502 1504 1506 1509 1511 1513 1515 1516 1518 1519 1520 1521 1521 1522 1523 1523 1523
1487 1490 1496 1497 1483 1479 1490 1479 1478 1480 1479 1481 1488 1484 1476 1477 1478 1479 1480 1483 1486 1487 1489 1491 1493 1495 1497 1499 1501 1503 1505 1508 1510 1511 1513 1514 1515 1516 1517 1518 1519 1520 1520 1520
1487 1493 1500 1500 1492 1502 1489 1472 1471 1475 1478 1477 1477 1475 1475 1475 1476 1478 1480 1482 1484 1485 1487 1489 1491 1493 1495 1497 1499 1501 1502 1504 1506 1507 1509 1511 1512 1513 1514 1515 1516 1516 1516 1516
1479 1489 1499 1505 1504 1497 1481 1471 1472 1477 1482 1477 1476 1475 1475 1475 1477 1480 1481 1483 1484 1485 1487 1488 1490 1491 1493 1495 1496 1498 1500 1501 1503 1504 1505 1507 1509 1510 1511 1512 1512 1513 1513 1513
1478 1483 1497 1503 1505 1505 1487 1471 1468 1473 1487 1478 1476 1476 1476 1475 1484 1484 1481 1483 1484 1485 1486 1487 1489 1490 1492 1494 1495 1496 1497 1499 1499 1501 1503 1504 1505 1506 1507 1508 1509 1509 1509 1509
1489 1491 1497 1501 1503 1496 1478 1470 1469 1488 1490 1479 1477 1476 1476 1476 1479 1480 1481 1482 1483 1484 1485 1487 1488 1488 1490 1492 1493 1494 1495 1496 1497 1499 1501 1502 1503 1503 1504 1505 1506 1506 1506 1506
1491 1495 1497 1500 1504 1499 1474 1472 1477 1481 1478 1477 1477 1476 1475 1475 1476 1477 1478 1480 1482 1482 1483 1485 1486 1487 1488 1489 1491 1491 1492 1494 1496 1497 1498 1499 1500 1501 1502 1502 1502 1503 1503 1503
1486 1486 1488 1489 1490 1479 1474 1474 1475 1476 1477 1477 1477 1477 1476 1476 1475 1476 1478 1479 1480 1481 1482 1483 1484 1485 1486 1487 1488 1489 1490 1492 1493 1494 1496 1497 1497 1498 1499 1499 1500 1500 1500 1500
1482 1479 1482 1483 1480 1477 1475 1474 1475 1475 1476 1476 1477 1478 1476 1476 1476 1477 1477 1478 1478 1479 1481 1482 1483 1483 1484 1485 1486 1487 1488 1490 1491 1492 1493 1494 1494 1495 1496 1496 1497 1496 1496 1496
1483 1481 1483 1483 1478 1476 1475 1475 1475 1475 1475 1475 1476 1477 1477 1477 1476 1476 1476 1476 1477 1477 1479 1480 1480 1481 1481 1482 1483 1485 1486 1487 1488 1488 1489 1490 1492 1492 1493 1493 1493 1493 1493 1493
1480 1481 1483 1483 1477 1477 1476 1475 1476 1476 1475 1475 1475 1475 1476 1476 1475 1475 1475 1475 1475 1475 1476 1477 1477 1478 1478 1479 1480 1481 1483 1484 1485 1486 1487 1488 1489 1490 1490 1490 1490 1490 1490 1490